Weather History for Linden, NJ

Change the Weather History Date:

Wednesday, April 16, 2014

  Actual Average (KEWR) Record (KEWR)
Temperature  
Mean Temperature 40 °F 53 °F  
Max Temperature 49 °F 62 °F 92 °F (2002)
Min Temperature 32 °F 44 °F 26 °F (1943)
Degree Days  
Heating Degree Days 24 12  
Month to date heating degree days 238  
Since 1 July heating degree days 4582  
Cooling Degree Days 0 0  
Month to date cooling degree days 0  
Year to date cooling degree days 1  
Moisture  
Dew Point 21 °F    
Average Humidity 48    
Maximum Humidity 93    
Minimum Humidity 27    
Precipitation  
Precipitation 0.11 in 0.14 in 2.82 in (1986)
Month to date precipitation 2.34  
Year to date precipitation 12.94  
Snow  
Snow 0.00 in 0.00 in T in (1992)
Month to date snowfall 0.7  
Since 1 July snowfall 28.3  
Snow Depth -    
Sea Level Pressure  
Sea Level Pressure 30.33 in    
Wind  
Wind Speed 12 mph (NNW)    
Max Wind Speed 21 mph    
Max Gust Speed 28 mph    
Visibility 10 miles    
Events Rain , Snow    
T = Trace of Precipitation, MM = Missing Value Source: NWS Daily Summary

Daily Weather History Graph

Daily Weather History Graph

Search for Another Location

Airport:

Trip Planner

Search our weather history database for the weather conditions in past years. The results will help you decide how hot, cold, wet, or windy it might be!

Date:

Astronomy

Apr. 16, 2014 Rise Set
Actual Time 6:16 AM EDT 7:37 PM EDT
Civil Twilight 5:48 AM EDT 8:05 PM EDT
Nautical Twilight 5:14 AM EDT 8:39 PM EDT
Astronomical Twilight 4:38 AM EDT 9:15 PM EDT
Moon 9:18 PM EDT (4/16) 7:02 AM EDT (4/16)
Length of Visible Light 14h 17m
Length of Day
13h 20m
Full, 98% of the Moon is Illuminated
Apr 16
Full
Apr 22
Last Quarter
Apr 29
New
May 6
First Quarter
May 14
Full

Hourly Weather History & Observations

Time (EDT) Temp. Windchill Dew Point Humidity Pressure Visibility Wind Dir Wind Speed Gust Speed Precip Events Conditions
12:15 AM 34.9 °F 27.7 °F 33.1 °F 93% 29.95 in 2.5 mi NNW 9.2 mph - 0.02 in Snow Light Snow
12:35 AM 34.7 °F 25.5 °F 32.9 °F 93% 29.97 in 2.5 mi NNW 13.8 mph 19.6 mph 0.06 in Rain Rain
12:55 AM 34.7 °F 28.8 °F 32.5 °F 92% 29.96 in 2.0 mi North 6.9 mph - 0.10 in Snow Light Snow
1:15 AM 35.4 °F 27.3 °F 32.2 °F 88% 29.96 in 10.0 mi NNW 11.5 mph 20.7 mph 0.01 in   Mostly Cloudy
1:35 AM 36.5 °F 27.8 °F 30.2 °F 78% 29.99 in 10.0 mi NW 13.8 mph 20.7 mph 0.01 in   Overcast
1:55 AM 36.5 °F 27.8 °F 29.3 °F 75% 29.98 in 10.0 mi NNW 13.8 mph 19.6 mph 0.01 in   Overcast
2:15 AM 36.7 °F 27.6 °F 28.2 °F 71% 29.99 in 10.0 mi NNW 15.0 mph 25.3 mph N/A   Mostly Cloudy
2:35 AM 36.5 °F 28.7 °F 28.2 °F 72% 29.99 in 10.0 mi NNW 11.5 mph - N/A   Scattered Clouds
2:55 AM 36.0 °F 26.7 °F 26.2 °F 68% 30.00 in 10.0 mi NNW 15.0 mph 24.2 mph N/A   Mostly Cloudy
3:15 AM 35.8 °F 24.8 °F 23.9 °F 62% 30.01 in 10.0 mi NNW 20.7 mph 27.6 mph N/A   Scattered Clouds
3:35 AM 35.6 °F 27.1 °F 23.9 °F 62% 30.01 in 10.0 mi NNW 12.7 mph 21.9 mph N/A   Clear
3:55 AM 35.4 °F 26.0 °F 23.7 °F 62% 30.09 in 10.0 mi NNW 15.0 mph 20.7 mph N/A   Scattered Clouds
4:15 AM 34.9 °F 24.9 °F 23.2 °F 62% 30.12 in 10.0 mi NW 16.1 mph 25.3 mph N/A   Scattered Clouds
4:35 AM 34.2 °F 23.3 °F 22.3 °F 62% 30.11 in 10.0 mi NNW 18.4 mph 25.3 mph N/A   Scattered Clouds
4:55 AM 33.8 °F 23.2 °F 19.6 °F 56% 30.13 in 10.0 mi NNW 17.3 mph 27.6 mph N/A   Clear
5:15 AM 33.4 °F 25.9 °F 20.1 °F 58% 30.13 in 10.0 mi NNW 9.2 mph 16.1 mph N/A   Scattered Clouds
5:35 AM 32.9 °F 23.7 °F 19.4 °F 58% 30.16 in 10.0 mi NNW 12.7 mph 23.0 mph N/A   Scattered Clouds
5:55 AM 32.4 °F 23.0 °F 18.5 °F 57% 30.17 in 10.0 mi NNW 12.7 mph - N/A   Clear
6:15 AM 32.0 °F 22.1 °F 18.5 °F 58% 30.21 in 10.0 mi North 13.8 mph 24.2 mph N/A   Clear
6:35 AM 32.0 °F 22.1 °F 18.5 °F 58% 30.23 in 10.0 mi NNW 13.8 mph 17.3 mph N/A   Scattered Clouds
6:55 AM 32.0 °F 23.0 °F 18.5 °F 58% 30.26 in 10.0 mi NNW 11.5 mph 17.3 mph N/A   Clear
7:15 AM 32.2 °F 21.4 °F 18.3 °F 57% 30.26 in 10.0 mi North 16.1 mph 25.3 mph N/A   Clear
7:35 AM 32.9 °F 23.7 °F 18.3 °F 55% 30.27 in 10.0 mi North 12.7 mph 26.5 mph N/A   Clear
8:15 AM 33.4 °F 24.8 °F 18.9 °F 55% 30.29 in 10.0 mi NNW 11.5 mph 21.9 mph N/A   Clear
8:35 AM 34.2 °F 24.4 °F 19.6 °F 55% 30.30 in 10.0 mi NNW 15.0 mph 23.0 mph N/A   Clear
8:55 AM 34.5 °F 25.7 °F 19.8 °F 55% 30.32 in 10.0 mi NNW 12.7 mph 17.3 mph N/A   Scattered Clouds
9:15 AM 35.1 °F 26.9 °F 20.5 °F 55% 30.33 in 10.0 mi NNW 11.5 mph 16.1 mph N/A   Clear
9:35 AM 35.6 °F 26.2 °F 20.5 °F 54% 30.33 in 10.0 mi NNW 15.0 mph 21.9 mph N/A   Clear
9:55 AM 36.5 °F 27.8 °F 21.0 °F 54% 30.35 in 10.0 mi NW 13.8 mph 19.6 mph N/A   Clear
10:15 AM 37.0 °F 28.9 °F 20.7 °F 52% 30.36 in 10.0 mi NNW 12.7 mph 18.4 mph N/A   Clear
10:35 AM 38.3 °F 31.9 °F 20.8 °F 50% 30.38 in 10.0 mi North 9.2 mph 16.1 mph N/A   Clear
10:55 AM 39.0 °F 31.4 °F 20.8 °F 48% 30.39 in 10.0 mi NNW 12.7 mph 19.6 mph N/A   Unknown
11:15 AM 39.7 °F 32.3 °F 20.1 °F 45% 30.39 in 10.0 mi NW 12.7 mph 18.4 mph N/A   Clear
11:35 AM 41.0 °F 33.9 °F 21.7 °F 46% 30.41 in 10.0 mi NW 12.7 mph - N/A   Clear
11:55 AM 41.4 °F 34.3 °F 22.1 °F 46% 30.41 in 10.0 mi NW 12.7 mph 23.0 mph N/A   Clear
12:15 PM 42.4 °F 36.5 °F 21.2 °F 43% 30.42 in 10.0 mi North 10.4 mph 21.9 mph N/A   Clear
12:35 PM 43.5 °F 37.9 °F 22.6 °F 44% 30.42 in 10.0 mi NW 10.4 mph 17.3 mph N/A   Clear
12:55 PM 44.4 °F 37.5 °F 19.8 °F 37% 30.43 in 10.0 mi North 15.0 mph 20.7 mph N/A   Clear
1:15 PM 45.3 °F 39.0 °F 23.4 °F 42% 30.44 in 10.0 mi NNW 13.8 mph 24.2 mph N/A   Clear
1:35 PM 45.3 °F 39.3 °F 21.6 °F 39% 30.43 in 10.0 mi North 12.7 mph 19.6 mph N/A   Clear
1:55 PM 46.0 °F 39.6 °F 22.3 °F 39% 30.43 in 10.0 mi NNW 15.0 mph 20.7 mph N/A   Clear
2:15 PM 46.4 °F 40.7 °F 20.7 °F 36% 30.44 in 10.0 mi NNW 12.7 mph - N/A   Clear
2:35 PM 46.9 °F - 21.0 °F 36% 30.44 in 10.0 mi NNW 11.5 mph 18.4 mph N/A   Clear
2:55 PM 47.3 °F - 21.0 °F 35% 30.44 in 10.0 mi NNW 13.8 mph - N/A   Clear
3:15 PM 47.7 °F - 20.3 °F 34% 30.44 in 10.0 mi North 11.5 mph 19.6 mph N/A   Clear
3:35 PM 48.4 °F - 20.3 °F 33% 30.44 in 10.0 mi North 12.7 mph 19.6 mph N/A   Clear
3:55 PM 49.5 °F - 19.2 °F 30% 30.44 in 10.0 mi NNW 12.7 mph - N/A   Clear
4:15 PM 48.6 °F - 18.3 °F 30% 30.44 in 10.0 mi NNW 9.2 mph - N/A   Clear
4:35 PM 49.1 °F - 19.4 °F 31% 30.44 in 10.0 mi NW 6.9 mph 10.4 mph N/A   Clear
4:55 PM 49.5 °F - 17.2 °F 28% 30.44 in 10.0 mi NNE 6.9 mph - N/A   Clear
5:15 PM 49.3 °F - 18.1 °F 29% 30.45 in 10.0 mi NW 10.4 mph 17.3 mph N/A   Clear
5:35 PM 49.3 °F - 18.1 °F 29% 30.45 in 10.0 mi NNW 9.2 mph - N/A   Clear
5:55 PM 48.9 °F - 17.8 °F 29% 30.46 in 10.0 mi North 11.5 mph - N/A   Clear
6:15 PM 49.3 °F - 16.2 °F 27% 30.46 in 10.0 mi North 5.8 mph - N/A   Clear
6:35 PM 48.9 °F - 16.9 °F 28% 30.46 in 10.0 mi NNW 10.4 mph - N/A   Clear
6:55 PM 48.7 °F - 16.2 °F 27% 30.47 in 10.0 mi NNE 8.1 mph - N/A   Clear
7:35 PM 47.1 °F - 16.0 °F 29% 30.47 in 10.0 mi North 10.4 mph - N/A   Clear
7:55 PM 46.4 °F 42.4 °F 14.7 °F 28% 30.48 in 10.0 mi North 8.1 mph - N/A   Clear
8:15 PM 46.0 °F 42.5 °F 15.4 °F 29% 30.49 in 10.0 mi North 6.9 mph - N/A   Clear
8:35 PM 45.9 °F 42.3 °F 16.0 °F 30% 30.51 in 10.0 mi North 6.9 mph - N/A   Clear
8:55 PM 45.5 °F 44.2 °F 16.5 °F 31% 30.52 in 10.0 mi North 3.5 mph - N/A   Clear
9:15 PM 45.1 °F 42.0 °F 17.1 °F 33% 30.53 in 10.0 mi North 5.8 mph - N/A   Clear
9:35 PM 44.8 °F 41.6 °F 17.4 °F 33% 30.55 in 10.0 mi North 5.8 mph - N/A   Clear
9:55 PM 44.6 °F 42.2 °F 17.4 °F 34% 30.55 in 10.0 mi North 4.6 mph - N/A   Clear
10:15 PM 44.2 °F 41.0 °F 17.8 °F 35% 30.56 in 10.0 mi North 5.8 mph - N/A   Clear
10:35 PM 44.2 °F 39.7 °F 17.4 °F 34% 30.56 in 10.0 mi NNE 8.1 mph - N/A   Clear
10:55 PM 43.9 °F 37.9 °F 16.7 °F 34% 30.57 in 10.0 mi NE 11.5 mph - N/A   Clear
11:15 PM 43.7 °F 38.1 °F 16.0 °F 33% 30.57 in 10.0 mi NE 10.4 mph - N/A   Clear
11:35 PM 43.5 °F 39.4 °F 17.1 °F 35% 30.58 in 10.0 mi NE 6.9 mph - N/A   Clear
11:55 PM 43.0 °F 36.8 °F 16.3 °F 34% 30.59 in 10.0 mi ENE 11.5 mph 17.3 mph N/A   Clear